Home > Weather > Wilmington > Past weeks

Flag for U.S.A. Weather for the Past 2 Weeks in Wilmington, North Carolina, U.S.A.

Now
48 °F

Sunny.


Feels Like: 43 °F
Forecast: 26 / 45 °F
Wind: 10 mph from Northwest

Location: New Hanover International Airport

Current Time: Feb 11, 2016 at 5:09:43 PM

Latest Report: Feb 11, 2016 at 3:53 PM


Visibility: 10 mi

Pressure: 30.16 "Hg

Humidity: 29%

Dew point: 17 °F

Location of WilmingtonLocation

Historic Weather in Wilmington — Graph

°F

Wilmington Temperature Yesterday

Maximum temperature yesterday: 43 °F (at 12:53 PM)
Minimum temperature yesterday: 33 °F (at 6:53 AM)
Average temperature yesterday: 37 °F

High & Low Weather Summary for the Past Weeks

 TemperatureHumidityPressure
High76 °F (Feb 1, 2:53 PM)97% (Feb 4, 4:03 AM)30.44 "Hg (Feb 4, 4:03 AM)
Low26 °F (Feb 11, 6:53 AM)28% (Feb 11, 12:53 PM)29.62 "Hg (Feb 9, 12:53 AM)
Average49 °F69%30.01 "Hg
* Reported Jan 27 3:53 PM — Feb 11 3:53 PM, Wilmington, Weather by CustomWeather, © 2016

Note: Actual official high and low records may vary slightly from our data, if they occured in-between our weather recording intervals... More about our weather records

Advertising

Wilmington Weather History for the Previous 24 Hours

 ConditionsComfort  
Time TempWeatherWind HumidityBarometerVisibility
3:53 PM
Thu, Feb 11
48 °FSunny.10 mph29%30.16 "Hg10 mi
2:53 PM46 °FSunny.9 mph30%30.16 "Hg10 mi
1:53 PM45 °FSunny.10 mph28%30.17 "Hg10 mi
12:53 PM43 °FSunny.7 mph28%30.19 "Hg10 mi
11:53 AM40 °FSunny.12 mph30%30.23 "Hg10 mi
10:53 AM38 °FSunny.8 mph33%30.24 "Hg10 mi
9:53 AM34 °FSunny.3 mph37%30.25 "Hg10 mi
8:53 AM32 °FSunny.8 mph38%30.24 "Hg10 mi
7:53 AM30 °FSunny.8 mph47%30.21 "Hg10 mi
6:53 AM26 °FClear.7 mph57%30.19 "Hg10 mi
5:53 AM28 °FClear.7 mph53%30.16 "Hg10 mi
4:53 AM29 °FClear.6 mph54%30.16 "Hg10 mi
3:53 AM29 °FClear.6 mph49%30.13 "Hg10 mi
2:53 AM29 °FClear.8 mph56%30.11 "Hg10 mi
1:53 AM30 °FClear.6 mph59%30.11 "Hg10 mi
12:53 AM30 °FClear.7 mph59%30.11 "Hg10 mi
11:53 PM
Wed, Feb 10
33 °FClear.13 mph52%30.09 "Hg10 mi
10:53 PM34 °FClear.12 mph50%30.08 "Hg10 mi
9:53 PM34 °FClear.13 mph54%30.07 "Hg10 mi
8:53 PM34 °FClear.8 mph54%30.04 "Hg10 mi
7:53 PM35 °FClear.8 mph48%30.03 "Hg10 mi
6:53 PM37 °FPassing clouds.16 mph42%30.01 "Hg10 mi
5:53 PM39 °FOvercast.18 mph43%29.98 "Hg10 mi
Weather by CustomWeather, © 2016

See weather overviewHow to use our weather pages